Location: Roanoke
(37.2710°N, 79.9420°W)
Time: 05:44:19
(UTC-05:00)

Daily predictions for brighter satellites

Satellite Brightness Start Highest point End
(mag) Time Altitude Azimuth Time Altitude Azimuth Time Altitude Azimuth
Cosmos 2237 Rocket 4.2 04:07:43 23° ENE 04:07:43 23° ENE 04:11:19 10° ESE
Cosmos 2297 Rocket 3.9 04:17:59 29° ESE 04:17:59 29° ESE 04:22:44 10° NE
Cosmos 2227 Rocket 3.6 04:32:14 32° NE 04:32:14 32° NE 04:35:24 10° NNE
CZ-3 R/B 4.2 04:39:32 40° WSW 04:42:29 42° SW 04:52:13 10° SSE
NOSS 0 Rocket 4.1 04:47:06 66° E 04:47:06 66° E 04:52:42 10° SSE
Cosmos 1980 4.0 04:53:53 62° ENE 04:53:53 62° ENE 04:59:20 10° SSE
Cosmos 2082 4.0 04:58:06 63° NE 04:58:06 63° NE 05:02:57 10° NNE
Cosmos 2333 Rocket 2.3 05:01:08 67° SSE 05:01:08 67° SSE 05:06:02 10° SSE
COSMO-SKYMED 1 4.3 04:57:34 10° SE 05:01:22 31° ENE 05:02:54 24° NE
Cosmos 540 Rocket 4.5 05:00:07 36° NNE 05:01:27 43° ENE 05:06:18 10° SE
Tsikada Rocket 4.2 05:07:11 10° N 05:13:35 71° E 05:19:51 10° SSE
OAO 2 Rocket 3.4 05:19:29 63° S 05:19:29 63° S 05:24:19 10° E
ISS -0.4 05:23:15 12° NE 05:23:15 12° NE 05:24:10 10° NE
Cosmos 2219 Rocket 3.0 05:26:01 34° SSW 05:26:01 34° SSW 05:29:28 10° S
Meteor 2-17 Rocket 4.3 05:20:06 10° SSW 05:26:06 67° W 05:32:08 10° N
Thor Agena Rocket 4.2 05:23:49 10° S 05:27:30 40° SSW 05:27:30 40° SSW
Ariane Rocket 3.9 05:27:41 10° NNE 05:32:38 49° E 05:37:33 10° S
Cosmos 1725 Rocket 4.0 05:34:19 10° SSW 05:40:25 57° W 05:46:36 10° N
Cosmos 220 Rocket 4.4 05:36:45 10° S 05:41:07 66° ESE 05:45:30 10° NNE
Cosmos 1864 Rocket 4.4 05:35:28 10° SSW 05:41:26 56° W 05:47:29 10° N
SL-24 R/B 4.4 05:37:04 10° N 05:41:48 81° WNW 05:47:25 10° SSW
CSL-04 Rocket 4.2 05:42:27 10° NNE 05:47:41 57° ESE 05:52:50 10° S
SKYMED 2 3.4 05:45:02 10° S 05:49:20 73° WSW 05:51:33 28° NNW
Cosmos 2237 Rocket 2.5 05:49:37 38° WNW 05:51:00 45° WSW 05:56:23 10° S
SL-16 R/B 2.3 05:48:45 14° NNW 05:53:40 78° ENE 05:59:20 10° SSE
BREEZE-M DEB (TANK) 3.9 05:55:26 33° W 05:56:39 38° WSW 05:59:36 10° SSE
NOAA 6 4.4 05:55:20 10° N 06:00:11 41° WNW 06:05:01 10° SW
Cosmos 1340 Rocket 4.4 05:56:44 10° N 06:00:22 35° ENE 06:03:59 10° SE
Cosmos 2297 Rocket 2.7 05:59:57 29° W 06:01:48 36° WNW 06:07:00 10° N
TELKOM 3 3.7 06:03:15 33° SSW 06:04:16 59° SE 06:06:33 10° ENE
Cosmos 968 Rocket 3.4 06:01:22 10° SSW 06:06:36 73° WNW 06:11:53 10° NNE
Meteor 1-16 Rocket 4.0 06:07:38 10° SSW 06:13:07 79° W 06:18:30 10° N
Cosmos 1271 Rocket 2.7 06:10:25 10° S 06:14:16 83° E 06:18:05 10° N
Cosmos 2227 Rocket 3.3 06:14:08 22° WNW 06:14:17 22° NW 06:18:35 10° N
CZ-2C R/B 3.4 06:10:01 10° NNE 06:14:26 46° E 06:18:49 10° S
SL-14 R/B 3.3 06:11:53 10° N 06:15:57 89° W 06:20:01 10° S
CZ-4 R/B 2.0 06:16:13 10° NNE 06:20:14 59° E 06:24:16 10° S
Cosmos 2221 2.7 06:17:39 10° S 06:21:59 76° E 06:26:19 10° N
Meteor 1-28 Rocket 3.5 06:18:34 10° S 06:22:10 42° W 06:25:24 12° NNW
USA 229 DEB 3.9 06:16:20 13° NW 06:22:38 61° WSW 06:29:45 10° SSE
USA 229 3.9 06:16:24 13° NW 06:22:45 62° WSW 06:29:51 10° SSE
Meteor 2-1 Rocket 4.3 06:19:51 10° S 06:25:24 84° E 06:31:07 10° N
Aureole 2 Rocket 3.7 06:28:33 17° NW 06:31:12 31° W 06:34:52 10° SSW
CZ-3 Stage 3 3.7 06:28:46 12° WSW 06:32:54 48° S 06:51:50 10° ESE
Coronas F rocket 4.3 06:31:51 10° NE 06:33:02 13° ENE 06:34:13 10° ESE
Cosmos 1777 Rocket 3.9 06:28:08 10° SSW 06:33:21 81° WNW 06:38:36 10° NNE
Cosmos 1461 4.4 06:32:41 16° W 06:33:31 17° WSW 06:36:05 10° SSW
IDEFIX/ARIANE 42P 2.8 06:28:55 10° NNE 06:34:13 78° ESE 06:39:29 10° S
GPS 2-05 Rocket1 3.7 06:31:28 11° WSW 06:34:29 44° SSE 06:37:44 10° E
Meteor 1-4 Rocket 3.7 06:33:44 10° SW 06:36:45 23° WNW 06:39:48 10° NNW
COSMO-SKYMED 1 3.9 06:34:20 10° SW 06:37:32 20° W 06:40:07 13° NW
SMAP 3.3 06:33:15 10° NNE 06:37:55 74° ESE 06:42:33 10° S
Cosmos 2333 Rocket 4.0 06:43:13 10° W 06:43:42 10° W 06:44:42 10° WSW
Cosmos 1184 Rocket 4.0 06:44:11 10° N 06:47:23 44° E 06:50:34 10° SSE
Cosmos 2034 Rocket 4.0 06:41:17 10° S 06:47:27 84° W 06:53:43 10° N
Cosmos 1626 2.6 06:44:38 10° N 06:48:21 66° E 06:52:03 10° SSE
Cosmos 2058 3.2 06:47:11 10° NNW 06:51:06 44° W 06:55:02 10° SSW
Cosmos 1805 Rocket 3.5 06:46:43 10° N 06:51:10 83° W 06:55:33 10° S
Tiangong 2 4.1 06:50:26 10° S 06:52:34 17° SE 06:54:43 10° E
Cosmos 1603 3.7 06:51:41 10° NNW 06:57:20 86° WSW 07:02:59 10° SSE
Cosmos 1538 Rocket 4.4 06:53:10 10° NNW 06:58:15 44° WSW 07:03:18 10° S
ISS -3.2 06:56:11 10° NW 06:59:27 76° NE 07:02:42 10° SE
Cosmos 1908 3.5 06:56:59 10° S 07:00:46 73° E 07:04:36 10° N
CORIOLIS 4.2 06:57:06 10° N 07:02:33 81° WNW 07:07:57 10° SSW
Meteor 1-29 3.4 06:59:14 10° SSE 07:02:41 67° ENE 07:06:10 10° N
Nadezhda 4 Rocket 4.2 06:56:25 10° N 07:02:47 80° E 07:09:05 10° S
Cosmos 2151 4.1 06:59:45 10° NW 07:03:08 24° W 07:06:30 10° SW
USA 234 3.3 06:56:49 10° SE 07:03:23 83° SW 07:09:59 10° NW
OAO 2 Rocket 3.6 06:59:13 10° W 07:04:04 62° S 07:08:58 10° ESE
Helios 1B rocket 2.4 07:00:37 10° SSE 07:04:44 84° W 07:08:51 10° NNW
Cosmos 923 Rocket 4.1 07:00:34 10° NNW 07:05:49 88° WSW 07:11:03 10° SSE
Cosmos 2263 Rocket 3.2 07:00:56 10° S 07:06:26 54° ESE 07:11:59 10° NNE
